Radiation Dose at Monitoring Post of Fukushima Daini Nuclear Power Station
Date,Time,MP-1(microSv/h),MP-2(microSv/h),MP-3(microSv/h),MP-4(microSv/h),MP-5(microSv/h),MP-6(microSv/h),MP-7(microSv/h),Wind Direction,Wind Velocity(m/s),Rain
2013/06/20,00:00,0.9,0.6,0.9,0.8,0.8,0.4,0.3,east-southeast,0.8,No
2013/06/20,00:10,0.9,0.6,0.9,0.8,0.8,0.4,0.3,southeast,0.8,No
2013/06/20,00:20,0.9,0.6,0.9,0.8,0.8,0.4,0.3,south-southwest,2.5,No
2013/06/20,00:30,0.9,0.6,0.9,0.8,0.8,0.4,0.3,southwest,3.7,No
2013/06/20,00:40,0.9,0.6,0.9,0.8,0.8,0.4,0.3,southwest,4.5,No
2013/06/20,00:50,0.9,0.6,0.9,0.8,0.8,0.4,0.3,south-southwest,4.2,No
2013/06/20,01:00,0.9,0.6,0.9,0.8,0.8,0.4,0.3,south-southwest,3.3,No
2013/06/20,01:10,0.9,0.6,0.9,0.8,0.8,0.4,0.3,south-southwest,4.1,No
2013/06/20,01:20,0.9,0.6,0.9,0.8,0.8,0.4,0.3,south-southwest,3.9,No
2013/06/20,01:30,0.9,0.6,0.9,0.8,0.8,0.4,0.3,south-southwest,5.7,No
2013/06/20,01:40,0.9,0.6,0.9,0.8,0.8,0.4,0.3,south-southwest,5.4,No
2013/06/20,01:50,0.9,0.6,0.9,0.8,0.8,0.4,0.3,south-southwest,4.0,No
2013/06/20,02:00,0.9,0.6,0.9,0.8,0.8,0.4,0.3,south-southwest,5.3,Yes
2013/06/20,02:10,0.9,0.6,0.9,0.8,0.8,0.4,0.3,south,4.4,Yes
2013/06/20,02:20,0.9,0.6,0.9,0.8,0.8,0.4,0.3,south,4.9,Yes
2013/06/20,02:30,0.9,0.6,0.9,0.8,0.8,0.4,0.3,south,5.4,Yes
2013/06/20,02:40,0.9,0.6,0.9,0.8,0.8,0.4,0.3,south,4.2,Yes
2013/06/20,02:50,0.9,0.6,0.9,0.8,0.8,0.4,0.3,south-southwest,4.4,Yes
2013/06/20,03:00,0.9,0.6,0.9,0.8,0.8,0.4,0.3,south-southwest,5.8,Yes
2013/06/20,03:10,0.9,0.6,0.9,0.8,0.8,0.4,0.3,south,4.2,Yes
2013/06/20,03:20,0.9,0.6,0.9,0.8,0.8,0.4,0.3,south-southwest,2.4,Yes
2013/06/20,03:30,0.9,0.6,0.9,0.8,0.8,0.4,0.3,southwest,1.2,No
2013/06/20,03:40,0.9,0.6,0.9,0.8,0.8,0.4,0.3,south,1.0,Yes
2013/06/20,03:50,0.9,0.6,0.9,0.8,0.8,0.4,0.3,south-southwest,0.7,Yes
2013/06/20,04:00,0.9,0.6,0.9,0.8,0.8,0.4,0.3,-,CALM,Yes
2013/06/20,04:10,0.9,0.6,0.9,0.8,0.8,0.4,0.3,-,CALM,Yes
2013/06/20,04:20,0.9,0.6,0.9,0.8,0.8,0.4,0.3,west-northwest,1.1,Yes
2013/06/20,04:30,0.9,0.6,0.9,0.8,0.8,0.4,0.3,-,CALM,Yes
2013/06/20,04:40,0.9,0.6,0.9,0.8,0.8,0.4,0.3,-,CALM,Yes
2013/06/20,04:50,0.9,0.6,0.9,0.8,0.8,0.4,0.3,southwest,1.1,Yes
2013/06/20,05:00,0.9,0.6,0.9,0.8,0.8,0.4,0.3,south-southwest,1.6,No
2013/06/20,05:10,0.9,0.6,0.9,0.8,0.8,0.4,0.3,south-southwest,1.6,No
2013/06/20,05:20,0.9,0.6,0.9,0.8,0.8,0.4,0.3,south-southwest,0.7,No
2013/06/20,05:30,0.9,0.6,0.9,0.8,0.8,0.4,0.3,west,0.6,No
2013/06/20,05:40,0.9,0.6,0.9,0.8,0.8,0.4,0.3,north-northwest,1.0,No
2013/06/20,05:50,0.9,0.6,0.9,0.8,0.8,0.4,0.3,northwest,0.6,No
2013/06/20,06:00,0.9,0.6,0.9,0.8,0.8,0.4,0.3,north,0.7,No
2013/06/20,06:10,0.9,0.6,0.9,0.8,0.8,0.4,0.3,-,CALM,No
2013/06/20,06:20,0.9,0.6,0.9,0.8,0.8,0.4,0.3,north-northeast,0.8,No
2013/06/20,06:30,0.9,0.6,0.9,0.8,0.8,0.4,0.3,north-northeast,1.3,No
2013/06/20,06:40,0.9,0.6,0.9,0.8,0.8,0.4,0.3,north,0.9,No
2013/06/20,06:50,0.9,0.6,0.9,0.8,0.8,0.4,0.3,north,1.4,No
2013/06/20,07:00,0.9,0.6,0.9,0.8,0.8,0.4,0.3,north,1.1,No
2013/06/20,07:10,0.9,0.6,0.9,0.8,0.8,0.4,0.3,north,1.3,No
2013/06/20,07:20,0.9,0.6,0.9,0.8,0.8,0.4,0.3,north,1.2,No
2013/06/20,07:30,0.9,0.6,0.9,0.8,0.8,0.4,0.3,-,CALM,No
2013/06/20,07:40,0.9,0.6,0.9,0.8,0.8,0.4,0.3,-,CALM,No
2013/06/20,07:50,0.9,0.6,0.9,0.8,0.8,0.4,0.3,-,CALM,No
2013/06/20,08:00,0.9,0.6,0.9,0.8,0.8,0.4,0.3,southwest,1.0,No
2013/06/20,08:10,0.9,0.6,0.9,0.8,0.8,0.4,0.3,southwest,1.4,No
2013/06/20,08:20,0.9,0.6,0.9,0.8,0.8,0.4,0.3,west-southwest,1.8,No
2013/06/20,08:30,0.9,0.6,0.9,0.8,0.8,0.4,0.3,southwest,1.7,No
2013/06/20,08:40,0.9,0.6,0.9,0.8,0.8,0.4,0.3,south-southwest,1.6,No
2013/06/20,08:50,0.9,0.6,0.9,0.8,0.8,0.4,0.3,south,1.5,No
2013/06/20,09:00,0.9,0.6,0.9,0.8,0.8,0.4,0.3,south,1.9,No
2013/06/20,09:10,0.9,0.6,0.9,0.8,0.8,0.4,0.3,south-southwest,2.0,No
2013/06/20,09:20,0.9,0.6,0.9,0.8,0.8,0.4,0.3,south-southwest,2.2,No
2013/06/20,09:30,0.9,0.6,0.9,0.8,0.8,0.4,0.3,south,2.1,No
2013/06/20,09:40,0.9,0.6,0.9,0.8,0.8,0.4,0.3,south,2.1,No
2013/06/20,09:50,0.9,0.6,0.9,0.8,0.8,0.4,0.3,south-southwest,2.8,No
2013/06/20,10:00,0.9,0.6,0.9,0.8,0.8,0.4,0.3,south,2.9,No
2013/06/20,10:10,0.9,0.6,0.9,0.8,0.8,0.4,0.3,south,2.5,No
2013/06/20,10:20,0.9,0.6,0.9,0.8,0.8,0.4,0.3,south,3.1,No
2013/06/20,10:30,0.9,0.6,0.9,0.8,0.8,0.4,0.3,south-southwest,3.8,No
2013/06/20,10:40,0.9,0.6,0.9,0.8,0.8,0.4,0.3,south,3.6,No
2013/06/20,10:50,0.9,0.6,0.9,0.9,0.8,0.4,0.3,south-southwest,4.8,No
2013/06/20,11:00,0.9,0.6,0.9,0.9,0.8,0.4,0.3,south-southwest,3.6,No
2013/06/20,11:10,0.9,0.6,0.9,0.9,0.8,0.4,0.3,south,4.6,No
2013/06/20,11:20,0.9,0.6,0.9,0.9,0.8,0.4,0.3,south-southeast,4.0,No
2013/06/20,11:30,0.9,0.6,0.9,0.9,0.8,0.4,0.3,south-southeast,4.5,No
2013/06/20,11:40,0.9,0.6,0.9,0.9,0.8,0.4,0.3,south,4.9,No
2013/06/20,11:50,0.9,0.6,0.9,0.9,0.8,0.4,0.3,south,3.4,No
2013/06/20,12:00,0.9,0.6,0.9,0.9,0.8,0.4,0.3,south,5.0,No
2013/06/20,12:10,0.9,0.6,0.9,0.9,0.8,0.4,0.3,south,4.2,No
2013/06/20,12:20,0.9,0.6,0.9,0.9,0.8,0.4,0.3,south,5.5,No
2013/06/20,12:30,0.9,0.6,0.9,0.9,0.8,0.4,0.3,south,5.1,No
2013/06/20,12:40,0.9,0.6,0.9,0.9,0.8,0.4,0.3,south-southeast,4.7,No
2013/06/20,12:50,0.9,0.6,0.9,0.9,0.8,0.4,0.3,south,4.2,No
2013/06/20,13:00,0.9,0.6,0.9,0.9,0.8,0.4,0.3,south-southeast,3.4,No
2013/06/20,13:10,0.9,0.6,0.9,0.9,0.8,0.4,0.3,south-southeast,3.4,No
2013/06/20,13:20,0.9,0.6,0.9,0.9,0.8,0.4,0.3,south-southeast,4.6,No
2013/06/20,13:30,0.9,0.6,0.9,0.9,0.8,0.4,0.3,south,4.5,No
2013/06/20,13:40,0.9,0.6,0.9,0.9,0.8,0.4,0.3,south,5.0,No
2013/06/20,13:50,0.9,0.6,0.9,0.9,0.8,0.4,0.3,south,4.5,No
2013/06/20,14:00,0.9,0.6,0.9,0.9,0.8,0.4,0.3,south,4.7,No
2013/06/20,14:10,0.9,0.6,0.9,0.9,0.8,0.4,0.3,south,4.2,No
2013/06/20,14:20,0.9,0.6,0.9,0.9,0.8,0.4,0.3,south,4.9,No
2013/06/20,14:30,0.9,0.6,0.9,0.9,0.8,0.4,0.3,south-southwest,5.2,No
2013/06/20,14:40,0.9,0.6,0.9,0.9,0.8,0.4,0.3,south,4.9,No
2013/06/20,14:50,0.9,0.6,0.9,0.9,0.8,0.4,0.3,south,5.0,No
2013/06/20,15:00,0.9,0.6,0.9,0.9,0.8,0.4,0.3,south-southwest,4.0,No
2013/06/20,15:10,0.9,0.6,0.9,0.9,0.8,0.4,0.3,south-southwest,3.1,No
2013/06/20,15:20,0.9,0.6,0.9,0.9,0.8,0.4,0.3,south-southwest,3.1,No
2013/06/20,15:30,0.9,0.6,0.9,0.9,0.8,0.4,0.3,south,3.1,No
2013/06/20,15:40,0.9,0.6,0.9,0.9,0.8,0.4,0.3,south,3.6,No
2013/06/20,15:50,0.9,0.6,0.9,0.9,0.8,0.4,0.3,south,4.3,No
2013/06/20,16:00,0.9,0.6,0.9,0.9,0.8,0.4,0.3,south,5.0,No
2013/06/20,16:10,0.9,0.6,0.9,0.9,0.8,0.4,0.3,south,5.6,No
2013/06/20,16:20,0.9,0.6,0.9,0.9,0.8,0.4,0.3,south,5.6,No
2013/06/20,16:30,0.9,0.6,0.9,0.9,0.8,0.4,0.3,south-southwest,5.9,No
2013/06/20,16:40,0.9,0.6,0.9,0.9,0.8,0.4,0.3,south-southwest,6.5,No
2013/06/20,16:50,0.9,0.6,0.9,0.9,0.8,0.4,0.3,south-southwest,7.2,No
2013/06/20,17:00,0.9,0.6,0.9,0.9,0.8,0.4,0.3,south,8.0,No
2013/06/20,17:10,0.9,0.6,0.9,0.9,0.8,0.4,0.3,south-southwest,6.7,No
2013/06/20,17:20,0.9,0.6,0.9,0.9,0.8,0.4,0.3,south-southwest,7.0,No
2013/06/20,17:30,0.9,0.6,0.9,0.9,0.8,0.4,0.3,south-southwest,5.9,No
2013/06/20,17:40,0.9,0.6,0.9,0.9,0.8,0.4,0.3,south-southwest,7.3,No
2013/06/20,17:50,0.9,0.6,0.9,0.9,0.8,0.4,0.3,south-southwest,5.8,No
2013/06/20,18:00,0.9,0.6,0.9,0.9,0.8,0.4,0.3,south-southwest,5.5,No
2013/06/20,18:10,0.9,0.6,0.9,0.9,0.8,0.4,0.3,south-southwest,6.4,No
2013/06/20,18:20,0.9,0.6,0.9,0.9,0.8,0.4,0.3,south-southwest,7.0,No
2013/06/20,18:30,0.9,0.6,0.9,0.9,0.8,0.4,0.3,south-southwest,8.6,No
2013/06/20,18:40,0.9,0.6,0.9,0.9,0.8,0.4,0.3,south-southwest,8.4,No
2013/06/20,18:50,0.9,0.6,0.9,0.9,0.8,0.4,0.3,south-southwest,7.1,No
2013/06/20,19:00,0.9,0.6,0.9,0.9,0.8,0.4,0.3,south-southwest,5.7,No
2013/06/20,19:10,0.9,0.6,0.9,0.9,0.8,0.4,0.3,southwest,4.2,No
2013/06/20,19:20,0.9,0.6,0.9,0.9,0.8,0.4,0.3,southwest,3.6,No
2013/06/20,19:30,0.9,0.6,0.9,0.9,0.8,0.4,0.3,southwest,3.9,No
2013/06/20,19:40,0.9,0.6,0.9,0.9,0.8,0.4,0.3,south-southwest,3.8,No
2013/06/20,19:50,0.9,0.6,0.9,0.9,0.8,0.4,0.3,south-southwest,4.2,No
2013/06/20,20:00,0.9,0.6,0.9,0.9,0.8,0.4,0.3,south-southwest,4.5,No
2013/06/20,20:10,0.9,0.6,0.9,0.9,0.8,0.4,0.3,south-southwest,4.6,No
2013/06/20,20:20,0.9,0.6,0.9,0.9,0.8,0.4,0.3,south-southwest,5.2,No
2013/06/20,20:30,0.9,0.6,0.9,0.9,0.8,0.4,0.3,south-southwest,5.3,No
2013/06/20,20:40,0.9,0.6,0.9,0.9,0.8,0.4,0.3,south-southwest,5.2,No
2013/06/20,20:50,0.9,0.6,0.9,0.9,0.8,0.4,0.3,southwest,4.6,No
2013/06/20,21:00,0.9,0.6,0.9,0.9,0.8,0.4,0.3,southwest,3.1,No
2013/06/20,21:10,0.9,0.6,0.9,0.9,0.8,0.4,0.3,west-southwest,2.9,No
2013/06/20,21:20,0.9,0.6,0.9,0.9,0.8,0.4,0.3,west-southwest,2.8,No
2013/06/20,21:30,0.9,0.6,0.9,0.8,0.8,0.4,0.3,west-southwest,1.9,No
2013/06/20,21:40,0.9,0.6,0.9,0.8,0.8,0.4,0.3,west,1.8,No
2013/06/20,21:50,0.9,0.6,0.9,0.9,0.8,0.4,0.3,west,1.7,No
2013/06/20,22:00,0.9,0.6,0.9,0.8,0.8,0.4,0.3,northwest,1.7,No
2013/06/20,22:10,0.9,0.6,0.9,0.9,0.8,0.4,0.3,north-northwest,1.9,No
2013/06/20,22:20,0.9,0.6,0.9,0.9,0.8,0.4,0.3,north-northwest,2.3,No
2013/06/20,22:30,0.9,0.6,0.9,0.9,0.8,0.4,0.3,north-northwest,2.0,No
2013/06/20,22:40,0.9,0.6,0.9,0.9,0.8,0.4,0.3,north-northwest,2.4,No
2013/06/20,22:50,0.9,0.6,0.9,0.9,0.8,0.4,0.3,north-northwest,1.8,No
2013/06/20,23:00,0.9,0.6,0.9,0.8,0.8,0.4,0.3,north-northwest,1.6,No
2013/06/20,23:10,0.9,0.6,0.9,0.8,0.8,0.4,0.3,north-northwest,1.5,No
2013/06/20,23:20,0.9,0.6,0.9,0.8,0.8,0.4,0.3,north-northwest,0.7,No
2013/06/20,23:30,0.9,0.6,0.9,0.8,0.8,0.4,0.3,north,1.4,No
2013/06/20,23:40,0.9,0.6,0.9,0.8,0.8,0.4,0.3,north,2.9,No
2013/06/20,23:50,0.9,0.6,0.9,0.8,0.8,0.4,0.3,north,2.8,No
